owner,sensor,date,latitude,longitude,vertical_datum,wind_speed,wind_to_direction,wind_speed_of_gust,qcFlag 
TCOON,ioos:station:TCOON:518:1,2008-02-01T00:00:00Z,29.5150,-94.5133,0.0,7.8,294.0,9.1,'11111222,11111222,11111222' 
TCOON,ioos:station:TCOON:518:1,2008-02-01T01:00:00Z,29.5150,-94.5133,0.0,8.4,301.0,10.5,'11111222,11111222,11111222' 
TCOON,ioos:station:TCOON:518:1,2008-02-01T05:00:00Z,29.5150,-94.5133,0.0,9.4,319.0,10.6,'11111222,11111222,11111222' 
TCOON,ioos:station:TCOON:518:1,2008-02-01T06:00:00Z,29.5150,-94.5133,0.0,8.1,315.0,9.6,'11111222,11111222,11111222' 
TCOON,ioos:station:TCOON:518:1,2008-02-01T07:00:00Z,29.5150,-94.5133,0.0,8.0,315.0,9.0,'11111222,11111222,11111222' 
TCOON,ioos:station:TCOON:518:1,2008-02-01T08:00:00Z,29.5150,-94.5133,0.0,8.6,317.0,10.6,'11111222,11111222,11111222' 
TCOON,ioos:station:TCOON:518:1,2008-02-01T09:00:00Z,29.5150,-94.5133,0.0,7.5,320.0,8.9,'11111222,11111222,11111222' 
TCOON,ioos:station:TCOON:518:1,2008-02-01T10:00:00Z,29.5150,-94.5133,0.0,6.9,327.0,7.9,'11111222,11111222,11111222' 
TCOON,ioos:station:TCOON:518:1,2008-02-01T11:00:00Z,29.5150,-94.5133,0.0,5.9,327.0,7.0,'11111222,11111222,11111222' 
TCOON,ioos:station:TCOON:518:1,2008-02-01T12:00:00Z,29.5150,-94.5133,0.0,4.6,321.0,5.9,'11111222,11111222,11111222' 
TCOON,ioos:station:TCOON:518:1,2008-02-01T13:00:00Z,29.5150,-94.5133,0.0,4.2,332.0,4.7,'11111222,11111222,11111222' 
TCOON,ioos:station:TCOON:518:1,2008-02-01T14:00:00Z,29.5150,-94.5133,0.0,4.3,344.0,4.9,'11111222,11111222,11111222' 
TCOON,ioos:station:TCOON:518:1,2008-02-01T15:00:00Z,29.5150,-94.5133,0.0,5.0,352.0,6.3,'11111222,11111222,11111222' 
TCOON,ioos:station:TCOON:518:1,2008-02-01T16:00:00Z,29.5150,-94.5133,0.0,4.2,2.0,5.4,'11111222,11111222,11111222' 
TCOON,ioos:station:TCOON:518:1,2008-02-01T17:00:00Z,29.5150,-94.5133,0.0,1.9,18.0,2.6,'11111222,11111222,11111222' 
TCOON,ioos:station:TCOON:518:1,2008-02-01T18:00:00Z,29.5150,-94.5133,0.0,0.0,331.0,99.0,'11111222,11111222,11144222' 
TCOON,ioos:station:TCOON:518:1,2008-02-01T19:00:00Z,29.5150,-94.5133,0.0,3.5,184.0,5.0,'11111222,11111222,11111222' 
TCOON,ioos:station:TCOON:518:1,2008-02-01T20:00:00Z,29.5150,-94.5133,0.0,2.3,177.0,3.2,'11111222,11111222,11111222' 
TCOON,ioos:station:TCOON:518:1,2008-02-01T21:00:00Z,29.5150,-94.5133,0.0,2.6,172.0,4.1,'11111222,11111222,11111222' 
TCOON,ioos:station:TCOON:518:1,2008-02-01T22:00:00Z,29.5150,-94.5133,0.0,4.0,163.0,5.3,'11111222,11111222,11111222' 
TCOON,ioos:station:TCOON:518:1,2008-02-01T23:00:00Z,29.5150,-94.5133,0.0,3.2,146.0,4.0,'11111222,11111222,11111222' 
TCOON,ioos:station:TCOON:518:1,2008-02-02T00:00:00Z,29.5150,-94.5133,0.0,2.5,151.0,3.3,'11111222,11111222,11111222' 
TCOON,ioos:station:TCOON:518:1,2008-02-02T01:00:00Z,29.5150,-94.5133,0.0,3.0,155.0,3.7,'11111222,11111222,11111222' 
TCOON,ioos:station:TCOON:518:1,2008-02-02T02:00:00Z,29.5150,-94.5133,0.0,4.2,147.0,5.1,'11111222,11111222,11111222' 
TCOON,ioos:station:TCOON:518:1,2008-02-02T03:00:00Z,29.5150,-94.5133,0.0,3.8,151.0,4.7,'11111222,11111222,11111222' 
TCOON,ioos:station:TCOON:518:1,2008-02-02T04:00:00Z,29.5150,-94.5133,0.0,4.4,153.0,5.7,'11111222,11111222,11111222' 
TCOON,ioos:station:TCOON:518:1,2008-02-02T05:00:00Z,29.5150,-94.5133,0.0,3.1,164.0,4.8,'11111222,11111222,11111222' 
TCOON,ioos:station:TCOON:518:1,2008-02-02T06:00:00Z,29.5150,-94.5133,0.0,2.0,166.0,3.0,'11111222,11111222,11111222' 
TCOON,ioos:station:TCOON:518:1,2008-02-02T07:00:00Z,29.5150,-94.5133,0.0,2.8,161.0,3.7,'11111222,11111222,11111222' 
TCOON,ioos:station:TCOON:518:1,2008-02-02T08:00:00Z,29.5150,-94.5133,0.0,2.5,179.0,3.5,'11111222,11111222,11111222' 
TCOON,ioos:station:TCOON:518:1,2008-02-02T09:00:00Z,29.5150,-94.5133,0.0,1.5,165.0,2.1,'11111222,11111222,11111222' 
TCOON,ioos:station:TCOON:518:1,2008-02-02T10:00:00Z,29.5150,-94.5133,0.0,1.1,331.0,1.2,'11111222,11111222,11111222' 
TCOON,ioos:station:TCOON:518:1,2008-02-02T11:00:00Z,29.5150,-94.5133,0.0,1.8,74.0,2.0,'11111222,11111222,11111222' 
TCOON,ioos:station:TCOON:518:1,2008-02-02T12:00:00Z,29.5150,-94.5133,0.0,2.1,119.0,2.5,'11111222,11111222,11111222' 
TCOON,ioos:station:TCOON:518:1,2008-02-02T13:00:00Z,29.5150,-94.5133,0.0,2.5,125.0,2.7,'11111222,11111222,11111222' 
TCOON,ioos:station:TCOON:518:1,2008-02-02T14:00:00Z,29.5150,-94.5133,0.0,3.8,139.0,4.4,'11111222,11111222,11111222' 
TCOON,ioos:station:TCOON:518:1,2008-02-02T15:00:00Z,29.5150,-94.5133,0.0,4.1,145.0,5.4,'11111222,11111222,11111222' 
TCOON,ioos:station:TCOON:518:1,2008-02-02T16:00:00Z,29.5150,-94.5133,0.0,4.2,131.0,5.1,'11111222,11111222,11111222' 
TCOON,ioos:station:TCOON:518:1,2008-02-02T17:00:00Z,29.5150,-94.5133,0.0,4.8,135.0,6.9,'11111222,11111222,11111222' 
TCOON,ioos:station:TCOON:518:1,2008-02-02T18:00:00Z,29.5150,-94.5133,0.0,4.8,141.0,6.2,'11111222,11111222,11111222' 
TCOON,ioos:station:TCOON:518:1,2008-02-02T19:00:00Z,29.5150,-94.5133,0.0,5.3,141.0,6.7,'11111222,11111222,11111222' 
TCOON,ioos:station:TCOON:518:1,2008-02-02T20:00:00Z,29.5150,-94.5133,0.0,5.0,149.0,6.5,'11111222,11111222,11111222' 
TCOON,ioos:station:TCOON:518:1,2008-02-02T21:00:00Z,29.5150,-94.5133,0.0,4.7,143.0,6.0,'11111222,11111222,11111222' 
TCOON,ioos:station:TCOON:518:1,2008-02-02T22:00:00Z,29.5150,-94.5133,0.0,4.7,136.0,6.3,'11111222,11111222,11111222' 
TCOON,ioos:station:TCOON:518:1,2008-02-02T23:00:00Z,29.5150,-94.5133,0.0,3.3,121.0,4.1,'11111222,11111222,11111222' 
TCOON,ioos:station:TCOON:518:1,2008-02-03T00:00:00Z,29.5150,-94.5133,0.0,4.9,121.0,5.5,'11111222,11111222,11111222' 
TCOON,ioos:station:TCOON:518:1,2008-02-03T01:00:00Z,29.5150,-94.5133,0.0,5.3,132.0,6.1,'11111222,11111222,11111222' 
TCOON,ioos:station:TCOON:518:1,2008-02-03T02:00:00Z,29.5150,-94.5133,0.0,5.0,126.0,6.0,'11111222,11111222,11111222' 
TCOON,ioos:station:TCOON:518:1,2008-02-03T03:00:00Z,29.5150,-94.5133,0.0,3.8,113.0,4.6,'11111222,11111222,11111222' 
TCOON,ioos:station:TCOON:518:1,2008-02-03T04:00:00Z,29.5150,-94.5133,0.0,4.7,119.0,5.3,'11111222,11111222,11111222' 
TCOON,ioos:station:TCOON:518:1,2008-02-03T05:00:00Z,29.5150,-94.5133,0.0,4.1,103.0,5.0,'11111222,11111222,11111222' 
TCOON,ioos:station:TCOON:518:1,2008-02-03T06:00:00Z,29.5150,-94.5133,0.0,3.5,105.0,4.0,'11111222,11111222,11111222' 
TCOON,ioos:station:TCOON:518:1,2008-02-03T07:00:00Z,29.5150,-94.5133,0.0,3.1,134.0,3.9,'11111222,11111222,11111222' 
TCOON,ioos:station:TCOON:518:1,2008-02-03T08:00:00Z,29.5150,-94.5133,0.0,2.5,145.0,3.1,'11111222,11111222,11111222' 
TCOON,ioos:station:TCOON:518:1,2008-02-03T09:00:00Z,29.5150,-94.5133,0.0,2.9,141.0,3.3,'11111222,11111222,11111222' 
TCOON,ioos:station:TCOON:518:1,2008-02-03T10:00:00Z,29.5150,-94.5133,0.0,2.5,140.0,3.2,'11111222,11111222,11111222' 
TCOON,ioos:station:TCOON:518:1,2008-02-03T11:00:00Z,29.5150,-94.5133,0.0,5.7,137.0,6.9,'11111222,11111222,11111222' 
TCOON,ioos:station:TCOON:518:1,2008-02-03T12:00:00Z,29.5150,-94.5133,0.0,1.3,159.0,2.0,'11111222,11111222,11111222' 
TCOON,ioos:station:TCOON:518:1,2008-02-03T13:00:00Z,29.5150,-94.5133,0.0,5.2,135.0,6.3,'11111222,11111222,11111222' 
TCOON,ioos:station:TCOON:518:1,2008-02-03T14:00:00Z,29.5150,-94.5133,0.0,3.6,158.0,4.8,'11111222,11111222,11111222' 
TCOON,ioos:station:TCOON:518:1,2008-02-03T15:00:00Z,29.5150,-94.5133,0.0,5.0,150.0,6.7,'11111222,11111222,11111222' 
TCOON,ioos:station:TCOON:518:1,2008-02-03T16:00:00Z,29.5150,-94.5133,0.0,5.5,152.0,99.0,'11111222,11111222,11144222' 
TCOON,ioos:station:TCOON:518:1,2008-02-03T17:00:00Z,29.5150,-94.5133,0.0,4.4,161.0,5.9,'11111222,11111222,11111222' 
TCOON,ioos:station:TCOON:518:1,2008-02-03T18:00:00Z,29.5150,-94.5133,0.0,3.3,161.0,5.4,'11111222,11111222,11111222' 
TCOON,ioos:station:TCOON:518:1,2008-02-03T19:00:00Z,29.5150,-94.5133,0.0,4.2,164.0,6.6,'11111222,11111222,11111222' 
TCOON,ioos:station:TCOON:518:1,2008-02-03T20:00:00Z,29.5150,-94.5133,0.0,4.7,162.0,7.8,'11111222,11111222,11111222' 
TCOON,ioos:station:TCOON:518:1,2008-02-03T21:00:00Z,29.5150,-94.5133,0.0,4.7,164.0,7.9,'11111222,11111222,11111222' 
TCOON,ioos:station:TCOON:518:1,2008-02-03T22:00:00Z,29.5150,-94.5133,0.0,3.7,163.0,6.3,'11111222,11111222,11111222' 
TCOON,ioos:station:TCOON:518:1,2008-02-03T23:00:00Z,29.5150,-94.5133,0.0,4.8,157.0,6.3,'11111222,11111222,11111222' 
TCOON,ioos:station:TCOON:518:1,2008-02-04T00:00:00Z,29.5150,-94.5133,0.0,6.0,139.0,7.2,'11111222,11111222,11111222' 
TCOON,ioos:station:TCOON:518:1,2008-02-04T01:00:00Z,29.5150,-94.5133,0.0,6.0,137.0,7.4,'11111222,11111222,11111222' 
TCOON,ioos:station:TCOON:518:1,2008-02-04T02:00:00Z,29.5150,-94.5133,0.0,4.6,142.0,5.9,'11111222,11111222,11111222' 
TCOON,ioos:station:TCOON:518:1,2008-02-04T03:00:00Z,29.5150,-94.5133,0.0,6.9,143.0,8.3,'11111222,11111222,11111222' 
TCOON,ioos:station:TCOON:518:1,2008-02-04T04:00:00Z,29.5150,-94.5133,0.0,6.2,142.0,8.4,'11111222,11111222,11111222' 
TCOON,ioos:station:TCOON:518:1,2008-02-04T05:00:00Z,29.5150,-94.5133,0.0,5.4,147.0,6.8,'11111222,11111222,11111222' 
TCOON,ioos:station:TCOON:518:1,2008-02-04T06:00:00Z,29.5150,-94.5133,0.0,5.4,152.0,7.8,'11111222,11111222,11111222' 
TCOON,ioos:station:TCOON:518:1,2008-02-04T07:00:00Z,29.5150,-94.5133,0.0,3.5,157.0,4.6,'11111222,11111222,11111222' 
TCOON,ioos:station:TCOON:518:1,2008-02-04T08:00:00Z,29.5150,-94.5133,0.0,3.9,149.0,5.0,'11111222,11111222,11111222' 
TCOON,ioos:station:TCOON:518:1,2008-02-04T09:00:00Z,29.5150,-94.5133,0.0,3.7,144.0,4.8,'11111222,11111222,11111222' 
TCOON,ioos:station:TCOON:518:1,2008-02-04T10:00:00Z,29.5150,-94.5133,0.0,4.5,144.0,5.7,'11111222,11111222,11111222' 
TCOON,ioos:station:TCOON:518:1,2008-02-04T11:00:00Z,29.5150,-94.5133,0.0,4.2,123.0,5.4,'11111222,11111222,11111222' 
TCOON,ioos:station:TCOON:518:1,2008-02-04T12:00:00Z,29.5150,-94.5133,0.0,4.7,119.0,5.6,'11111222,11111222,11111222' 
TCOON,ioos:station:TCOON:518:1,2008-02-04T13:00:00Z,29.5150,-94.5133,0.0,5.1,121.0,5.9,'11111222,11111222,11111222' 
TCOON,ioos:station:TCOON:518:1,2008-02-04T14:00:00Z,29.5150,-94.5133,0.0,5.0,117.0,6.1,'11111222,11111222,11111222' 
TCOON,ioos:station:TCOON:518:1,2008-02-04T15:00:00Z,29.5150,-94.5133,0.0,5.4,119.0,6.6,'11111222,11111222,11111222' 
TCOON,ioos:station:TCOON:518:1,2008-02-04T16:00:00Z,29.5150,-94.5133,0.0,6.5,119.0,7.7,'11111222,11111222,11111222' 
TCOON,ioos:station:TCOON:518:1,2008-02-04T17:00:00Z,29.5150,-94.5133,0.0,5.1,115.0,5.9,'11111222,11111222,11111222' 
TCOON,ioos:station:TCOON:518:1,2008-02-04T18:00:00Z,29.5150,-94.5133,0.0,4.9,117.0,6.3,'11111222,11111222,11111222' 
TCOON,ioos:station:TCOON:518:1,2008-02-04T19:00:00Z,29.5150,-94.5133,0.0,4.6,125.0,5.3,'11111222,11111222,11111222' 
TCOON,ioos:station:TCOON:518:1,2008-02-04T20:00:00Z,29.5150,-94.5133,0.0,4.6,125.0,5.3,'11111222,11111222,11111222' 
TCOON,ioos:station:TCOON:518:1,2008-02-04T21:00:00Z,29.5150,-94.5133,0.0,4.6,123.0,5.3,'11111222,11111222,11111222' 
TCOON,ioos:station:TCOON:518:1,2008-02-04T22:00:00Z,29.5150,-94.5133,0.0,4.8,121.0,5.5,'11111222,11111222,11111222' 
TCOON,ioos:station:TCOON:518:1,2008-02-04T23:00:00Z,29.5150,-94.5133,0.0,5.6,128.0,6.8,'11111222,11111222,11111222' 
TCOON,ioos:station:TCOON:518:1,2008-02-05T00:00:00Z,29.5150,-94.5133,0.0,5.0,127.0,6.1,'11111222,11111222,11111222' 
TCOON,ioos:station:TCOON:518:1,2008-02-05T01:00:00Z,29.5150,-94.5133,0.0,5.7,123.0,6.5,'11111222,11111222,11111222' 
TCOON,ioos:station:TCOON:518:1,2008-02-05T02:00:00Z,29.5150,-94.5133,0.0,4.1,123.0,5.0,'11111222,11111222,11111222' 
TCOON,ioos:station:TCOON:518:1,2008-02-05T03:00:00Z,29.5150,-94.5133,0.0,5.7,113.0,6.5,'11111222,11111222,11111222' 
TCOON,ioos:station:TCOON:518:1,2008-02-05T04:00:00Z,29.5150,-94.5133,0.0,6.9,120.0,8.3,'11111222,11111222,11111222' 
TCOON,ioos:station:TCOON:518:1,2008-02-05T05:00:00Z,29.5150,-94.5133,0.0,6.4,117.0,7.5,'11111222,11111222,11111222' 
TCOON,ioos:station:TCOON:518:1,2008-02-05T06:00:00Z,29.5150,-94.5133,0.0,5.8,112.0,6.7,'11111222,11111222,11111222' 
TCOON,ioos:station:TCOON:518:1,2008-02-05T07:00:00Z,29.5150,-94.5133,0.0,5.0,97.0,5.8,'11111222,11111222,11111222' 
TCOON,ioos:station:TCOON:518:1,2008-02-05T08:00:00Z,29.5150,-94.5133,0.0,5.5,101.0,6.6,'11111222,11111222,11111222' 
TCOON,ioos:station:TCOON:518:1,2008-02-05T09:00:00Z,29.5150,-94.5133,0.0,5.5,103.0,6.8,'11111222,11111222,11111222' 
TCOON,ioos:station:TCOON:518:1,2008-02-05T10:00:00Z,29.5150,-94.5133,0.0,6.0,101.0,6.9,'11111222,11111222,11111222' 
TCOON,ioos:station:TCOON:518:1,2008-02-05T11:00:00Z,29.5150,-94.5133,0.0,7.5,119.0,8.9,'11111222,11111222,11111222' 
TCOON,ioos:station:TCOON:518:1,2008-02-05T12:00:00Z,29.5150,-94.5133,0.0,5.0,121.0,6.0,'11111222,11111222,11111222' 
TCOON,ioos:station:TCOON:518:1,2008-02-05T13:00:00Z,29.5150,-94.5133,0.0,2.9,113.0,3.3,'11111222,11111222,11111222' 
TCOON,ioos:station:TCOON:518:1,2008-02-05T14:00:00Z,29.5150,-94.5133,0.0,6.3,121.0,7.1,'11111222,11111222,11111222' 
TCOON,ioos:station:TCOON:518:1,2008-02-05T15:00:00Z,29.5150,-94.5133,0.0,6.4,122.0,7.8,'11111222,11111222,11111222' 
TCOON,ioos:station:TCOON:518:1,2008-02-05T16:00:00Z,29.5150,-94.5133,0.0,4.6,133.0,5.8,'11111222,11111222,11111222' 
TCOON,ioos:station:TCOON:518:1,2008-02-05T17:00:00Z,29.5150,-94.5133,0.0,6.3,123.0,7.7,'11111222,11111222,11111222' 
TCOON,ioos:station:TCOON:518:1,2008-02-05T18:00:00Z,29.5150,-94.5133,0.0,5.3,118.0,6.3,'11111222,11111222,11111222' 
TCOON,ioos:station:TCOON:518:1,2008-02-05T19:00:00Z,29.5150,-94.5133,0.0,4.3,139.0,5.0,'11111222,11111222,11111222' 
TCOON,ioos:station:TCOON:518:1,2008-02-05T20:00:00Z,29.5150,-94.5133,0.0,3.3,143.0,4.0,'11111222,11111222,11111222' 
TCOON,ioos:station:TCOON:518:1,2008-02-05T21:00:00Z,29.5150,-94.5133,0.0,3.7,117.0,4.3,'11111222,11111222,11111222' 
TCOON,ioos:station:TCOON:518:1,2008-02-05T22:00:00Z,29.5150,-94.5133,0.0,2.6,102.0,3.1,'11111222,11111222,11111222' 
TCOON,ioos:station:TCOON:518:1,2008-02-05T23:00:00Z,29.5150,-94.5133,0.0,3.6,102.0,4.1,'11111222,11111222,11111222' 
TCOON,ioos:station:TCOON:518:1,2008-02-06T00:00:00Z,29.5150,-94.5133,0.0,3.1,97.0,3.6,'11111222,11111222,11111222' 
TCOON,ioos:station:TCOON:518:1,2008-02-06T01:00:00Z,29.5150,-94.5133,0.0,1.2,23.0,1.4,'11111222,11111222,11111222' 
TCOON,ioos:station:TCOON:518:1,2008-02-06T02:00:00Z,29.5150,-94.5133,0.0,1.6,107.0,1.9,'11111222,11111222,11111222' 
TCOON,ioos:station:TCOON:518:1,2008-02-06T03:00:00Z,29.5150,-94.5133,0.0,3.2,125.0,3.5,'11111222,11111222,11111222' 
TCOON,ioos:station:TCOON:518:1,2008-02-06T04:00:00Z,29.5150,-94.5133,0.0,8.9,311.0,10.7,'11111222,11111222,11111222' 
TCOON,ioos:station:TCOON:518:1,2008-02-06T05:00:00Z,29.5150,-94.5133,0.0,5.4,340.0,6.3,'11111222,11111222,11111222' 
TCOON,ioos:station:TCOON:518:1,2008-02-06T06:00:00Z,29.5150,-94.5133,0.0,7.4,332.0,8.6,'11111222,11111222,11111222' 
TCOON,ioos:station:TCOON:518:1,2008-02-06T07:00:00Z,29.5150,-94.5133,0.0,8.0,334.0,8.8,'11111222,11111222,11111222' 
TCOON,ioos:station:TCOON:518:1,2008-02-06T08:00:00Z,29.5150,-94.5133,0.0,9.6,331.0,11.4,'11111222,11111222,11111222' 
TCOON,ioos:station:TCOON:518:1,2008-02-06T09:00:00Z,29.5150,-94.5133,0.0,6.7,337.0,7.3,'11111222,11111222,11111222' 
TCOON,ioos:station:TCOON:518:1,2008-02-06T10:00:00Z,29.5150,-94.5133,0.0,11.7,317.0,13.7,'11111222,11111222,11111222' 
TCOON,ioos:station:TCOON:518:1,2008-02-06T11:00:00Z,29.5150,-94.5133,0.0,9.4,322.0,10.8,'11111222,11111222,11111222' 
TCOON,ioos:station:TCOON:518:1,2008-02-06T12:00:00Z,29.5150,-94.5133,0.0,10.1,319.0,11.3,'11111222,11111222,11111222' 
TCOON,ioos:station:TCOON:518:1,2008-02-06T13:00:00Z,29.5150,-94.5133,0.0,10.2,313.0,13.5,'11111222,11111222,11111222' 
TCOON,ioos:station:TCOON:518:1,2008-02-06T14:00:00Z,29.5150,-94.5133,0.0,12.7,314.0,14.8,'11111222,11111222,11111222' 
TCOON,ioos:station:TCOON:518:1,2008-02-06T15:00:00Z,29.5150,-94.5133,0.0,12.2,318.0,14.1,'11111222,11111222,11111222' 
TCOON,ioos:station:TCOON:518:1,2008-02-06T16:00:00Z,29.5150,-94.5133,0.0,8.0,319.0,9.7,'11111222,11111222,11111222' 
TCOON,ioos:station:TCOON:518:1,2008-02-06T17:00:00Z,29.5150,-94.5133,0.0,6.5,306.0,8.5,'11111222,11111222,11111222' 
TCOON,ioos:station:TCOON:518:1,2008-02-06T18:00:00Z,29.5150,-94.5133,0.0,7.6,307.0,8.8,'11111222,11111222,11111222' 
TCOON,ioos:station:TCOON:518:1,2008-02-06T19:00:00Z,29.5150,-94.5133,0.0,5.5,294.0,6.6,'11111222,11111222,11111222' 
TCOON,ioos:station:TCOON:518:1,2008-02-06T20:00:00Z,29.5150,-94.5133,0.0,4.7,279.0,6.0,'11111222,11111222,11111222' 
TCOON,ioos:station:TCOON:518:1,2008-02-06T21:00:00Z,29.5150,-94.5133,0.0,3.5,268.0,5.3,'11111222,11111222,11111222' 
TCOON,ioos:station:TCOON:518:1,2008-02-06T22:00:00Z,29.5150,-94.5133,0.0,4.0,241.0,5.4,'11111222,11111222,11111222' 
TCOON,ioos:station:TCOON:518:1,2008-02-06T23:00:00Z,29.5150,-94.5133,0.0,3.2,237.0,4.7,'11111222,11111222,11111222' 
TCOON,ioos:station:TCOON:518:1,2008-02-07T00:00:00Z,29.5150,-94.5133,0.0,2.4,230.0,2.9,'11111222,11111222,11111222' 
TCOON,ioos:station:TCOON:518:1,2008-02-07T01:00:00Z,29.5150,-94.5133,0.0,2.1,233.0,2.4,'11111222,11111222,11111222' 
TCOON,ioos:station:TCOON:518:1,2008-02-07T02:00:00Z,29.5150,-94.5133,0.0,1.7,215.0,2.3,'11111222,11111222,11111222' 
TCOON,ioos:station:TCOON:518:1,2008-02-07T03:00:00Z,29.5150,-94.5133,0.0,1.5,236.0,1.6,'11111222,11111222,11111222' 
TCOON,ioos:station:TCOON:518:1,2008-02-07T04:00:00Z,29.5150,-94.5133,0.0,2.1,24.0,2.3,'11111222,11111222,11111222' 
TCOON,ioos:station:TCOON:518:1,2008-02-07T05:00:00Z,29.5150,-94.5133,0.0,2.2,87.0,2.4,'11111222,11111222,11111222' 
TCOON,ioos:station:TCOON:518:1,2008-02-07T06:00:00Z,29.5150,-94.5133,0.0,3.1,15.0,3.5,'11111222,11111222,11111222' 
TCOON,ioos:station:TCOON:518:1,2008-02-07T07:00:00Z,29.5150,-94.5133,0.0,3.0,65.0,3.3,'11111222,11111222,11111222' 
TCOON,ioos:station:TCOON:518:1,2008-02-07T08:00:00Z,29.5150,-94.5133,0.0,3.5,78.0,3.8,'11111222,11111222,11111222' 
TCOON,ioos:station:TCOON:518:1,2008-02-07T09:00:00Z,29.5150,-94.5133,0.0,2.8,107.0,3.1,'11111222,11111222,11111222' 
TCOON,ioos:station:TCOON:518:1,2008-02-07T10:00:00Z,29.5150,-94.5133,0.0,2.1,101.0,2.8,'11111222,11111222,11111222' 
TCOON,ioos:station:TCOON:518:1,2008-02-07T11:00:00Z,29.5150,-94.5133,0.0,4.2,115.0,4.8,'11111222,11111222,11111222' 
TCOON,ioos:station:TCOON:518:1,2008-02-07T12:00:00Z,29.5150,-94.5133,0.0,5.2,121.0,5.7,'11111222,11111222,11111222' 
TCOON,ioos:station:TCOON:518:1,2008-02-07T13:00:00Z,29.5150,-94.5133,0.0,5.2,118.0,6.3,'11111222,11111222,11111222' 
TCOON,ioos:station:TCOON:518:1,2008-02-07T14:00:00Z,29.5150,-94.5133,0.0,5.4,135.0,6.4,'11111222,11111222,11111222' 
TCOON,ioos:station:TCOON:518:1,2008-02-07T15:00:00Z,29.5150,-94.5133,0.0,5.1,144.0,6.2,'11111222,11111222,11111222' 
TCOON,ioos:station:TCOON:518:1,2008-02-07T16:00:00Z,29.5150,-94.5133,0.0,5.0,150.0,6.8,'11111222,11111222,11111222' 
TCOON,ioos:station:TCOON:518:1,2008-02-07T17:00:00Z,29.5150,-94.5133,0.0,4.8,156.0,6.1,'11111222,11111222,11111222' 
TCOON,ioos:station:TCOON:518:1,2008-02-07T18:00:00Z,29.5150,-94.5133,0.0,3.3,183.0,5.5,'11111222,11111222,11111222' 
TCOON,ioos:station:TCOON:518:1,2008-02-07T19:00:00Z,29.5150,-94.5133,0.0,3.0,199.0,6.0,'11111222,11111222,11111222' 
TCOON,ioos:station:TCOON:518:1,2008-02-07T20:00:00Z,29.5150,-94.5133,0.0,2.8,191.0,4.8,'11111222,11111222,11111222' 
TCOON,ioos:station:TCOON:518:1,2008-02-07T21:00:00Z,29.5150,-94.5133,0.0,2.8,192.0,4.9,'11111222,11111222,11111222' 
TCOON,ioos:station:TCOON:518:1,2008-02-07T22:00:00Z,29.5150,-94.5133,0.0,3.8,182.0,6.4,'11111222,11111222,11111222' 
TCOON,ioos:station:TCOON:518:1,2008-02-07T23:00:00Z,29.5150,-94.5133,0.0,4.0,194.0,6.2,'11111222,11111222,11111222' 
TCOON,ioos:station:TCOON:518:1,2008-02-08T00:00:00Z,29.5150,-94.5133,0.0,3.5,218.0,6.2,'11111222,11111222,11111222' 
TCOON,ioos:station:TCOON:518:1,2008-02-08T01:00:00Z,29.5150,-94.5133,0.0,1.8,209.0,3.6,'11111222,11111222,11111222' 
TCOON,ioos:station:TCOON:518:1,2008-02-08T02:00:00Z,29.5150,-94.5133,0.0,3.1,253.0,4.3,'11111222,11111222,11111222' 
TCOON,ioos:station:TCOON:518:1,2008-02-08T03:00:00Z,29.5150,-94.5133,0.0,4.1,303.0,4.9,'11111222,11111222,11111222' 
TCOON,ioos:station:TCOON:518:1,2008-02-08T04:00:00Z,29.5150,-94.5133,0.0,2.2,357.0,2.8,'11111222,11111222,11111222' 
TCOON,ioos:station:TCOON:518:1,2008-02-08T05:00:00Z,29.5150,-94.5133,0.0,3.2,11.0,3.8,'11111222,11111222,11111222' 
TCOON,ioos:station:TCOON:518:1,2008-02-08T06:00:00Z,29.5150,-94.5133,0.0,2.6,25.0,3.1,'11111222,11111222,11111222' 
TCOON,ioos:station:TCOON:518:1,2008-02-08T07:00:00Z,29.5150,-94.5133,0.0,2.2,65.0,2.7,'11111222,11111222,11111222' 
TCOON,ioos:station:TCOON:518:1,2008-02-08T08:00:00Z,29.5150,-94.5133,0.0,3.7,35.0,4.5,'11111222,11111222,11111222' 
TCOON,ioos:station:TCOON:518:1,2008-02-08T09:00:00Z,29.5150,-94.5133,0.0,3.5,77.0,4.4,'11111222,11111222,11111222' 
TCOON,ioos:station:TCOON:518:1,2008-02-08T10:00:00Z,29.5150,-94.5133,0.0,3.9,69.0,4.5,'11111222,11111222,11111222' 
TCOON,ioos:station:TCOON:518:1,2008-02-08T11:00:00Z,29.5150,-94.5133,0.0,6.0,103.0,6.8,'11111222,11111222,11111222' 
TCOON,ioos:station:TCOON:518:1,2008-02-08T12:00:00Z,29.5150,-94.5133,0.0,5.7,111.0,6.9,'11111222,11111222,11111222' 
TCOON,ioos:station:TCOON:518:1,2008-02-08T13:00:00Z,29.5150,-94.5133,0.0,6.2,115.0,7.4,'11111222,11111222,11111222' 
TCOON,ioos:station:TCOON:518:1,2008-02-08T14:00:00Z,29.5150,-94.5133,0.0,5.8,120.0,7.6,'11111222,11111222,11111222' 
TCOON,ioos:station:TCOON:518:1,2008-02-08T15:00:00Z,29.5150,-94.5133,0.0,6.2,124.0,6.9,'11111222,11111222,11111222' 
TCOON,ioos:station:TCOON:518:1,2008-02-08T16:00:00Z,29.5150,-94.5133,0.0,6.1,126.0,7.5,'11111222,11111222,11111222' 
TCOON,ioos:station:TCOON:518:1,2008-02-08T17:00:00Z,29.5150,-94.5133,0.0,5.9,136.0,7.1,'11111222,11111222,11111222' 
TCOON,ioos:station:TCOON:518:1,2008-02-08T18:00:00Z,29.5150,-94.5133,0.0,5.2,135.0,6.6,'11111222,11111222,11111222' 
TCOON,ioos:station:TCOON:518:1,2008-02-08T19:00:00Z,29.5150,-94.5133,0.0,4.4,148.0,6.1,'11111222,11111222,11111222' 
TCOON,ioos:station:TCOON:518:1,2008-02-08T20:00:00Z,29.5150,-94.5133,0.0,5.0,156.0,7.1,'11111222,11111222,11111222' 
TCOON,ioos:station:TCOON:518:1,2008-02-08T21:00:00Z,29.5150,-94.5133,0.0,4.2,160.0,6.5,'11111222,11111222,11111222' 
TCOON,ioos:station:TCOON:518:1,2008-02-08T22:00:00Z,29.5150,-94.5133,0.0,3.1,188.0,6.0,'11111222,11111222,11111222' 
TCOON,ioos:station:TCOON:518:1,2008-02-08T23:00:00Z,29.5150,-94.5133,0.0,2.8,179.0,3.7,'11111222,11111222,11111222' 
TCOON,ioos:station:TCOON:518:1,2008-02-09T00:00:00Z,29.5150,-94.5133,0.0,1.4,164.0,1.9,'11111222,11111222,11111222' 
TCOON,ioos:station:TCOON:518:1,2008-02-09T01:00:00Z,29.5150,-94.5133,0.0,0.0,145.0,99.0,'11111222,11111222,11144222' 
TCOON,ioos:station:TCOON:518:1,2008-02-09T02:00:00Z,29.5150,-94.5133,0.0,0.9,128.0,1.1,'11111222,11111222,11111222' 
TCOON,ioos:station:TCOON:518:1,2008-02-09T03:00:00Z,29.5150,-94.5133,0.0,1.9,146.0,2.1,'11111222,11111222,11111222' 
TCOON,ioos:station:TCOON:518:1,2008-02-09T04:00:00Z,29.5150,-94.5133,0.0,3.1,160.0,4.6,'11111222,11111222,11111222' 
TCOON,ioos:station:TCOON:518:1,2008-02-09T05:00:00Z,29.5150,-94.5133,0.0,1.7,156.0,2.6,'11111222,11111222,11111222' 
TCOON,ioos:station:TCOON:518:1,2008-02-09T06:00:00Z,29.5150,-94.5133,0.0,2.9,156.0,3.8,'11111222,11111222,11111222' 
TCOON,ioos:station:TCOON:518:1,2008-02-09T07:00:00Z,29.5150,-94.5133,0.0,2.4,153.0,3.0,'11111222,11111222,11111222' 
TCOON,ioos:station:TCOON:518:1,2008-02-09T08:00:00Z,29.5150,-94.5133,0.0,1.0,142.0,1.1,'11111222,11111222,11111222' 
TCOON,ioos:station:TCOON:518:1,2008-02-09T09:00:00Z,29.5150,-94.5133,0.0,5.2,2.0,5.9,'11111222,11111222,11111222' 
TCOON,ioos:station:TCOON:518:1,2008-02-09T10:00:00Z,29.5150,-94.5133,0.0,3.1,32.0,3.6,'11111222,11111222,11111222' 
TCOON,ioos:station:TCOON:518:1,2008-02-09T11:00:00Z,29.5150,-94.5133,0.0,1.6,65.0,1.9,'11111222,11111222,11111222' 
TCOON,ioos:station:TCOON:518:1,2008-02-09T12:00:00Z,29.5150,-94.5133,0.0,2.3,74.0,2.7,'11111222,11111222,11111222' 
TCOON,ioos:station:TCOON:518:1,2008-02-09T13:00:00Z,29.5150,-94.5133,0.0,3.5,64.0,4.3,'11111222,11111222,11111222' 
TCOON,ioos:station:TCOON:518:1,2008-02-09T14:00:00Z,29.5150,-94.5133,0.0,4.5,76.0,5.6,'11111222,11111222,11111222' 